Regional Weather Roundup
Issued by NWS Jackson, KY

Home | Current Version | Previous Version | Text Only | Print | Product List | Glossary On
Versions: 1 2 3 4 5 6 7 8 9 10 11 12 13 14 15 16 17 18 19 20 21 22 23 24 25 26 27 28 29 30 31 32 33 34 35 36 37 38 39 40 41 42 43 44 45 46 47 48 49 50
363
ASUS43 KJKL 231610
RWRJKL

EAST KENTUCKY HOURLY WEATHER ROUNDUP
NATIONAL WEATHER SERVICE JACKSON KY
1200 PM EDT THU MAR 23 2017

NOTE: "FAIR" INDICATES FEW OR NO CLOUDS BELOW 12,000 FEET WITH
NO SIGNIFICANT WEATHER AND/OR OBSTRUCTIONS TO VISIBILITY.

* THESE REPORTS ARE NOT UNDER NWS QUALITY CONTROL AND MAY NOT
  REPORT WEATHER SUCH AS PRECIPITATION AND FOG.

KYZ079-080-083-085-087-088-110-112-115-119-120-231700
...EASTERN KENTUCKY...

CITY           SKY/WX    TMP DP  RH WIND       PRES   REMARKS
JACKSON        SUNNY     50  22  33 CALM      30.40S
LONDON         SUNNY     54  22  28 S9        30.39F
SOMERSET*      SUNNY     52  25  35 S3        30.40S
MONTICELLO*    SUNNY     56  27  32 VRB7      30.39F
WILLIAMSBURG*  SUNNY     55  25  30 SE9       30.38F
MIDDLESBORO*   SUNNY     56  25  30 SE5       30.42S
HARLAN APT*    SUNNY     55  19  24 NE6       30.40S
PIKE CO APT*     N/A     50  23  34 S6        30.40F
BIG SANDY APT* SUNNY     49  22  34 S3        30.42S
MOREHEAD APT*  SUNNY     48  16  27 VRB6G15   30.44F
ASHLAND*       SUNNY     45  21  39 CALM      30.45F
$$

KYZ035-036-041-042-044-050-067-078-099-231700
...CENTRAL KENTUCKY...

CITY           SKY/WX    TMP DP  RH WIND       PRES   REMARKS
MT STERLING*   SUNNY     46  23  39 SE8       30.43S
FLEMING/MASON* SUNNY     44  19  38 E6        30.44F
DANVILLE*      SUNNY     50  27  40 CALM      30.41R
LEXINGTON      SUNNY     48  18  30 E6        30.40F
FRANKFORT      PTSUNNY   47  20  34 E8        30.40F
LOUISVILLE     PTSUNNY   47  18  31 VRB3      30.41S
LEBANON*         N/A     50  25  37 E3        30.39S
GLASGOW*       PTSUNNY   56  27  32 CALM      30.38R
BOWLING GREEN  CLOUDY    52  28  39 MISG      30.38R
$$

KYZ091>093-OHZ055-061-077-WVZ005-015-034-035-042-231700
...SOUTHERN OHIO/WEST VIRGINIA...

CITY           SKY/WX    TMP DP  RH WIND       PRES   REMARKS
COVINGTON      MOSUNNY   43  17  35 E10       30.43F
COLUMBUS       PTSUNNY   40  12  32 E10       30.49F WCI  33
DAYTON         MOSUNNY   38  17  42 SE17      30.46F WCI  28
WILMINGTON     SUNNY     38  21  50 VRB7      30.46F WCI  33
HUNTINGTON     SUNNY     45  20  36 E5        30.44F
CHARLESTON     MOSUNNY   48  21  34 CALM      30.45S
PINEVILLE*     SUNNY     52  11  19 MISG      30.47F
BECKLEY        SUNNY     42  16  34 SE15      30.43S
BLUEFIELD      SUNNY     40  12  32 S7G17     30.43F
LOGAN CO APT*    N/A     50  18  27 S6G14     30.41F
$$

VAZ002-007-008-TNZ017-027-036-066-071-231700
...SOUTHWEST VIRGINIA/EAST TENNESSEE...

CITY           SKY/WX    TMP DP  RH WIND       PRES   REMARKS
WISE*          SUNNY     50  18  27 SE5G16    30.41S
JONESVILLE*      N/A     54  19  26 SE7       30.45S
ABINGDON*      SUNNY     53  18  25 E7        30.44F
BRISTOL        MOSUNNY   54  21  27 VRB7      30.43F
MORRISTOWN*    SUNNY     55  25  30 VRB5      30.41S
SEVIERVILLE*   SUNNY     54  30  40 NE5       30.41S
KNOXVILLE      MOSUNNY   55  23  28 SW6       30.41S
LAFOLLETTE*    SUNNY     55  25  30 VRB6      30.44S
OAK RIDGE      SUNNY     56  21  25 CALM      30.43F
CROSSVILLE     SUNNY     55  26  32 S12G20    30.39R
NASHVILLE      CLOUDY    53  29  39 CALM      30.36R
$$

...KEY TO REMARKS...
VSB - VISIBILITY IN MILES
WCI - WIND CHILL INDEX
HX  - HEAT INDEX

$$




USA.gov is the U.S. government's official web portal to all federal, state and local government web resources and services.